Elwood, MO

5:57 AM CDT on July 26, 2016 (GMT -0500)
Rosecrans Memorial

Weather History for KSTJ - August, 2012

Change the Weather History Date:

Tuesday, August 7, 2012

  Actual Average Record
Temperature  
Mean Temperature 81 °F 77 °F  
Max Temperature 100 °F 87 °F 108 °F (1934)
Min Temperature 62 °F 66 °F 48 °F (1989)
Degree Days  
Heating Degree Days 0 0  
Month to date heating degree days 0 0  
Since 1 June heating degree days 8 9  
Since 1 July heating degree days 0 1  
Cooling Degree Days 16 12  
Month to date cooling degree days 97 84  
Year to date cooling degree days 1267 838  
Since 1 June cooling degree days 1000 725  
Growing Degree Days 30 (Base 50)    
Moisture  
Dew Point 60 °F    
Average Humidity 58    
Maximum Humidity 90    
Minimum Humidity 25    
Precipitation  
Precipitation 0.00 in 0.12 in 2.35 in (1898)
Month to date precipitation 0.33 0.75  
Year to date precipitation 15.47 23.07  
Sea Level Pressure  
Sea Level Pressure 29.93 in    
Wind  
Wind Speed 4 mph (SSW)    
Max Wind Speed 17 mph    
Max Gust Speed 36 mph    
Visibility 10 miles    
Events      
T = Trace of Precipitation, MM = Missing Value Source: NWS Daily Summary

Daily Weather History Graph

Daily Weather History Graph

Search for Another Location

Airport or City:

Trip Planner

Search our weather history database for the weather conditions in past years. The results will help you decide how hot, cold, wet, or windy it might be!

Date:

Astronomy

Aug. 07, 2012 Rise Set
Actual Time 6:24 AM CDT 8:25 PM CDT
Civil Twilight 5:55 AM CDT 8:54 PM CDT
Nautical Twilight 5:18 AM CDT 9:30 PM CDT
Astronomical Twilight 4:39 AM CDT 10:09 PM CDT
Moon 11:07 PM CDT (8/7) 12:12 PM CDT (8/7)
Length of Visible Light 14h 59m
Length of Day
14h 00m
Waning Gibbous, 69% of the Moon is Illuminated
Aug 7
Waning Gibbous
Aug 9
Last Quarter
Aug 17
New
Aug 24
First Quarter
Aug 31
Full

Hourly Weather History & Observations

Time (CDT) Temp. Heat Index Dew Point Humidity Pressure Visibility Wind Dir Wind Speed Gust Speed Precip Events Conditions
12:53 AM 68.0 °F - 61.0 °F 78% 29.98 in 10.0 mi Calm Calm - N/A   Clear
1:53 AM 66.9 °F - 61.0 °F 81% 29.96 in 10.0 mi Calm Calm - N/A   Clear
2:53 AM 71.1 °F - 59.0 °F 66% 29.94 in 10.0 mi South 3.5 mph - N/A   Clear
3:53 AM 64.9 °F - 60.1 °F 84% 29.95 in 10.0 mi Calm Calm - N/A   Clear
4:53 AM 64.0 °F - 59.0 °F 84% 29.95 in 10.0 mi Calm Calm - N/A   Clear
5:53 AM 63.0 °F - 57.9 °F 84% 29.96 in 10.0 mi Calm Calm - N/A   Clear
6:53 AM 63.0 °F - 59.0 °F 87% 29.96 in 10.0 mi Calm Calm - N/A   Clear
7:53 AM 72.0 °F - 62.1 °F 71% 29.96 in 10.0 mi Calm Calm - N/A   Clear
8:53 AM 77.0 °F - 60.1 °F 56% 29.97 in 10.0 mi South 4.6 mph - N/A   Clear
9:42 AM 82.4 °F 82.9 °F 60.8 °F 48% 29.99 in 10.0 mi South 3.5 mph - N/A   Partly Cloudy
9:53 AM 82.0 °F 82.7 °F 61.0 °F 49% 29.96 in 10.0 mi SSW 4.6 mph - N/A   Clear
10:53 AM 87.1 °F 86.7 °F 60.1 °F 40% 29.96 in 10.0 mi South 5.8 mph - N/A   Clear
11:53 AM 91.9 °F 91.2 °F 59.0 °F 33% 29.95 in 10.0 mi Calm Calm - N/A   Scattered Clouds
12:53 PM 93.9 °F 92.9 °F 57.9 °F 30% 29.94 in 10.0 mi SW 5.8 mph - N/A   Clear
1:53 PM 96.1 °F 94.8 °F 57.0 °F 27% 29.93 in 10.0 mi SSW 5.8 mph - N/A   Clear
2:53 PM 96.1 °F 94.8 °F 57.0 °F 27% 29.91 in 10.0 mi South 6.9 mph - N/A   Mostly Cloudy
3:53 PM 98.1 °F 98.1 °F 60.1 °F 28% 29.90 in 10.0 mi Variable 6.9 mph - N/A   Clear
4:53 PM 97.0 °F 95.3 °F 55.9 °F 25% 29.88 in 10.0 mi WSW 9.2 mph - N/A   Clear
5:53 PM 97.0 °F 95.0 °F 55.0 °F 24% 29.88 in 10.0 mi West 4.6 mph - N/A   Clear
6:53 PM 96.1 °F 96.4 °F 61.0 °F 31% 29.88 in 10.0 mi Calm Calm - N/A   Clear
7:53 PM 86.0 °F 88.8 °F 66.9 °F 53% 29.88 in 10.0 mi NNW 4.6 mph - N/A   Clear
8:53 PM 89.1 °F 88.2 °F 59.0 °F 36% 29.89 in 10.0 mi East 8.1 mph - N/A   Clear
9:53 PM 86.0 °F 84.5 °F 55.0 °F 35% 29.91 in 10.0 mi ENE 5.8 mph - N/A   Clear
10:53 PM 73.9 °F - 63.0 °F 68% 29.92 in 10.0 mi NNE 3.5 mph - N/A   Clear
11:53 PM 73.0 °F - 62.1 °F 68% 29.91 in 10.0 mi Calm Calm - N/A   Clear